Flag for Norway Weather past 2 weeks in Lillestrøm, Norway

Now
53 °F

Cool.


Feels Like: 51 °F
Forecast: 35 / 49 °F
Wind: 7 mph from Southwest

Location: Oslo-Blindern

Current Time: Apr 26, 2015 at 3:43:21 PM

Latest Report: Apr 26, 2015 at 3:00 PM


Visibility: N/A

Pressure: 29.54 "Hg

Humidity: 37%

Dew point: 28 °F

Location of LillestrømLocation

Historic Weather in Lillestrøm — Graph

°F

Lillestrøm temperature yesterday

Maximum temperature yesterday: 47 °F (at 6:00 PM)
Minimum temperature yesterday: 43 °F (at 1:00 AM)
Average temperature yesterday: 45 °F

Past Weeks' High & Low Weather Summary

 TemperatureHumidityPressure
High72 °F (Apr 20, 3:00 PM)97% (Apr 12, 2:00 AM)30.35 "Hg (Apr 12, 2:00 AM)
Low32 °F (Apr 14, 4:00 AM)19% (Apr 20, 8:00 PM)29.35 "Hg (Apr 25, 8:00 PM)
Average47 °F54%29.89 "Hg
* Reported Apr 11 2:00 PM — Apr 26 2:00 PM, Lillestrøm, Weather by CustomWeather, © 2015

Note: Actual official high and low records may vary slightly from our data, if they occured in-between our weather recording intervals... More about our weather records

Advertising

Lillestrøm weather history for previous 24 hours

 ConditionsComfort  
Time TempWeatherWind HumidityBarometerVisibility
2:00 PM
Sun, Apr 26
53 °FPassing clouds.8 mph34%29.53 "Hg43 mi
1:00 PM53 °FCool.5 mph38%29.50 "HgN/A
12:00 PM50 °FCool.5 mph44%29.53 "HgN/A
11:00 AM48 °FPassing clouds.5 mph46%29.50 "Hg47 mi
10:00 AM46 °FCool.5 mph56%29.50 "HgN/A
9:00 AM44 °FQuite cool.3 mph64%29.50 "HgN/A
8:00 AM40 °FPassing clouds.3 mph72%29.50 "Hg47 mi
7:00 AM37 °FChilly.2 mph80%29.47 "HgN/A
6:00 AM33 °FChilly.1 mph86%29.47 "HgN/A
4:00 AM38 °FChilly.3 mph71%29.44 "HgN/A
3:00 AM38 °FChilly.2 mph73%29.41 "HgN/A
2:00 AM41 °FPassing clouds.5 mph74%29.41 "Hg43 mi
1:00 AM44 °FQuite cool.6 mph83%29.35 "HgN/A
12:00 AM47 °FCool.8 mph91%29.35 "HgN/A
10:00 PM
Sat, Apr 25
47 °FCool.7 mph94%29.35 "HgN/A
9:00 PM47 °FCool.6 mph94%29.35 "HgN/A
8:00 PM47 °FFog.7 mph93%29.35 "Hg2 mi
7:00 PM47 °FCool.7 mph93%29.38 "HgN/A
6:00 PM47 °FCool.6 mph92%29.38 "HgN/A
5:00 PM46 °FFog.5 mph96%29.41 "Hg1 mi
4:00 PM46 °FCool.5 mph96%29.41 "HgN/A
3:00 PM45 °FCool.5 mph96%29.44 "HgN/A
Weather by CustomWeather, © 2015

See weather overviewHow to use our weather pages